Weather History for Casper, WY

Change the Weather History Date:

Friday, March 8, 2013

  Actual Average Record
Temperature  
Mean Temperature 36 °F 33 °F  
Max Temperature 52 °F 45 °F 64 °F (1986)
Min Temperature 19 °F 21 °F -6 °F (1969)
Degree Days  
Heating Degree Days 29 32  
Month to date heating degree days 252 265  
Since 1 July heating degree days 5302 5713  
Cooling Degree Days 0 0  
Month to date cooling degree days 0 0  
Year to date cooling degree days 0 0  
Moisture  
Dew Point 22 °F    
Average Humidity 57    
Maximum Humidity 84    
Minimum Humidity 30    
Precipitation  
Precipitation 0.00 in 0.03 in 0.56 in (1992)
Month to date precipitation T 0.18  
Year to date precipitation 0.77 1.26  
Snow  
Snow 0.00 in 0.30 in - ()
Month to date snowfall 0.4 2.5  
Since 1 July snowfall 33.1 51.9  
Snow Depth 0.00 in    
Sea Level Pressure  
Sea Level Pressure 29.84 in    
Wind  
Wind Speed 6 mph (ENE)    
Max Wind Speed 15 mph    
Max Gust Speed 18 mph    
Visibility 10 miles    
Events      
T = Trace of Precipitation, MM = Missing Value Source: NWS Daily Summary

Daily Weather History Graph

Daily Weather History Graph

Search for Another Location

Airport:

Trip Planner

Search our weather history database for the weather conditions in past years. The results will help you decide how hot, cold, wet, or windy it might be!

Date:

Astronomy

Mar. 08, 2013 Rise Set
Actual Time 6:29 AM MST 6:04 PM MST
Civil Twilight 6:01 AM MST 6:32 PM MST
Nautical Twilight 5:28 AM MST 7:05 PM MST
Astronomical Twilight 4:55 AM MST 7:38 PM MST
Moon 4:19 AM MST (3/8) 2:59 PM MST (3/8)
Length of Visible Light 12h 31m
Length of Day
11h 34m
Waning Crescent, 11% of the Moon is Illuminated
Mar 8
Waning Crescent
Mar 11
New
Mar 19
First Quarter
Mar 27
Full
Apr 2
Last Quarter

Hourly Weather History & Observations

Time (MST) Temp. Windchill Dew Point Humidity Pressure Visibility Wind Dir Wind Speed Gust Speed Precip Events Conditions
12:53 AM 28.0 °F 20.0 °F 19.0 °F 69% 29.94 in 10.0 mi NNW 8.1 mph - N/A   Clear
1:53 AM 30.0 °F 21.1 °F 21.0 °F 69% 29.92 in 10.0 mi NNE 10.4 mph - N/A   Clear
2:53 AM 25.0 °F - 19.0 °F 78% 29.92 in 10.0 mi Calm Calm - N/A   Clear
3:53 AM 21.9 °F - 17.1 °F 82% 29.92 in - Calm Calm - N/A   Scattered Clouds
4:53 AM 23.0 °F 14.7 °F 18.0 °F 81% 29.91 in - NW 6.9 mph - N/A   Clear
5:53 AM 21.0 °F - 17.1 °F 85% 29.94 in 10.0 mi Calm Calm - N/A   Clear
6:53 AM 23.0 °F - 18.0 °F 81% 29.96 in 10.0 mi Calm Calm - N/A   Clear
7:53 AM 28.0 °F 22.8 °F 21.9 °F 78% 29.96 in 10.0 mi East 4.6 mph - N/A   Clear
8:53 AM 30.9 °F 26.2 °F 23.0 °F 72% 29.95 in 10.0 mi ENE 4.6 mph - N/A   Clear
9:53 AM 34.0 °F 29.8 °F 24.1 °F 67% 29.93 in 10.0 mi East 4.6 mph - N/A   Clear
10:53 AM 39.0 °F 34.8 °F 24.1 °F 55% 29.88 in 10.0 mi ENE 5.8 mph - N/A   Clear
11:53 AM 44.1 °F 40.8 °F 24.1 °F 45% 29.85 in 10.0 mi East 5.8 mph - N/A   Clear
12:53 PM 46.0 °F - 23.0 °F 40% 29.81 in 10.0 mi Calm Calm - N/A   Clear
1:53 PM 51.1 °F - 21.9 °F 32% 29.73 in 10.0 mi Calm Calm - N/A   Clear
2:53 PM 50.0 °F - 23.0 °F 35% 29.74 in 10.0 mi East 11.5 mph - N/A   Clear
3:53 PM 48.9 °F - 23.0 °F 36% 29.74 in 10.0 mi East 11.5 mph - N/A   Clear
4:53 PM 46.9 °F - 24.1 °F 41% 29.75 in 10.0 mi East 8.1 mph - N/A   Clear
5:53 PM 44.1 °F 38.6 °F 24.1 °F 45% 29.76 in 10.0 mi East 10.4 mph - N/A   Clear
6:53 PM 39.0 °F 32.3 °F 25.0 °F 57% 29.79 in 10.0 mi East 10.4 mph - N/A   Clear
7:53 PM 37.9 °F 30.5 °F 26.1 °F 62% 29.78 in 10.0 mi ENE 11.5 mph - N/A   Clear
8:53 PM 37.0 °F 29.3 °F 27.0 °F 67% 29.78 in 10.0 mi NE 11.5 mph - N/A   Overcast
9:53 PM 32.0 °F 26.4 °F 24.1 °F 73% 29.79 in 10.0 mi NNW 5.8 mph - N/A   Scattered Clouds
10:53 PM 32.0 °F 24.2 °F 25.0 °F 75% 29.78 in 10.0 mi North 9.2 mph - N/A   Clear
11:53 PM 30.0 °F 24.1 °F 24.1 °F 79% 29.78 in 10.0 mi NNE 5.8 mph - N/A   Clear